This demonstration page uses our WeatherBlox Daily Observations layout. Learn more.

41.55636, -103.73856

Hourly Observations for June 13, 2020

Temp ( °F °C ) Dew Point ( °F °C ) Humidity (%) Winds ( mph kmh ) Pressure ( in mb ) Visibility ( mi km ) Precip ( " mm )
12:58 am 00:58 Clear 83 28.1 38 3.3 20 20 SSE 22 35 30.03 1017 10 16.0934 0 0
1:58 am 01:58 Clear 77 25.2 42 5.3 28 28 SE 15 24 30.03 1017 10 16.0934 0 0
2:58 am 02:58 Clear 74 23.1 43 6 33 33 SSE 16 26 30.03 1017 10 16.0934 0 0
3:58 am 03:58 Clear 72 22.2 41 5.1 33 33 SSE 26 43 30.04 1017 10 16.0934 0 0
4:58 am 04:58 Clear 69 20.8 41 5.1 36 36 SSE 30 48 30.03 1017 10 16.0934 0 0
5:58 am 05:58 Clear 67 19.7 43 5.9 41 41 SSE 30 48 30.02 1017 10 16.0934 0 0
6:58 am 06:58 Clear 66 18.7 44 6.7 46 46 S 28 44 30.01 1016 10 16.0934 0 0
7:58 am 07:58 Clear 64 17.8 45 7.3 50 50 S 28 44 30 1016 10 16.0934 0 0
8:58 am 08:58 Clear 64 17.8 45 7.1 50 50 S 24 39 29.98 1015 10 16.0934 0 0
9:58 am 09:58 Clear 62 16.9 46 7.8 55 55 S 22 35 29.96 1014 10 16.0934 0 0
10:58 am 10:58 Clear 63 17 47 8.5 58 58 S 18 30 29.96 1015 10 16.0934 0 0
11:58 am 11:58 Sunny 58 14.3 48 8.7 69 69 Calm 29.98 1015 10 16.0934 0 0
12:58 pm 12:58 Sunny 64 17.5 49 9.7 60 60 S 9 15 29.96 1015 10 16.0934 0 0
1:58 pm 13:58 Sunny 68 20 50 9.9 52 52 S 14 22 29.97 1015 10 16.0934 0 0
2:58 pm 14:58 Sunny 73 22.9 44 6.8 36 36 SSE 15 24 29.95 1014 10 16.0934 0 0
3:58 pm 15:58 Sunny 78 25.6 43 6.3 29 29 SSE 16 26 29.93 1013 10 16.0934 0 0
4:58 pm 16:58 Sunny 82 28 40 4.7 23 23 SSE 15 24 29.91 1013 10 16.0934 0 0
5:58 pm 17:58 Sunny 85 29.4 43 6.1 23 23 SSE 18 30 29.88 1012 10 16.0934 0 0
6:58 pm 18:58 Sunny 87 30.4 42 5.7 21 21 SE 21 33 29.84 1011 10 16.0934 0 0
7:59 pm 19:59 Mostly Sunny 89 31.7 41 5.1 19 19 SSE 25 41 29.8 1009 10 16.0934 0 0
8:58 pm 20:58 Sunny 90 32.1 43 6.1 20 20 SSE 22 35 29.78 1008 10 16.0934 0 0
9:58 pm 21:58 Sunny 90 32.2 43 6.2 20 20 SE 21 33 29.76 1008 10 16.0934 0 0
10:58 pm 22:58 Sunny 88 31.2 44 6.7 21 21 SSE 24 39 29.73 1007 10 16.0934 0 0
11:58 pm 23:58 Sunny 86 30.2 45 7.4 24 24 SE 24 39 29.72 1007 10 16.0934 0 0

Powered by AerisWeather